• In United Kingdom
  • List of Countries
  • For 7 days
  • Water Temperature
  • Satellite Maps
  • Weather Map
  • Weather Widgets
  • user-avatar
    Login

    Hourly Weather Serowe

    Today, 26 September, Wednesday

    Time Temperature Precipitation Wind Pressure Humidity
    00:00 +25°C° 0 mm 3 mps 667 mmHg 24%
    01:00 +24°C° 0 mm 3 mps 666 mmHg 26%
    02:00 +24°C° 0 mm 3 mps 666 mmHg 28%
    03:00 +22°C° 0 mm 3 mps 666 mmHg 28%
    04:00 +22°C° 0 mm 3 mps 666 mmHg 29%
    05:00 +21°C° 0 mm 3 mps 666 mmHg 29%
    06:00 +23°C° 0 mm 4 mps 666 mmHg 26%
    07:00 +25°C° 0 mm 4 mps 667 mmHg 23%
    08:00 +27°C° 0 mm 4 mps 667 mmHg 21%
    09:00 +29°C° 0 mm 4 mps 668 mmHg 18%
    10:00 +33°C° 0 mm 4 mps 668 mmHg 14%
    11:00 +35°C° 0 mm 4 mps 669 mmHg 11%
    12:00 +36°C° 0 mm 3 mps 668 mmHg 10%
    13:00 +37°C° 0 mm 2 mps 668 mmHg 9%
    14:00 +38°C° 0 mm 2 mps 667 mmHg 8%
    15:00 +38°C° 0 mm 2 mps 667 mmHg 8%
    16:00 +38°C° 0 mm 3 mps 667 mmHg 8%
    17:00 +37°C° 0 mm 3 mps 667 mmHg 8%
    18:00 +35°C° 0 mm 3 mps 667 mmHg 9%
    19:00 +34°C° 0 mm 3 mps 667 mmHg 10%
    20:00 +31°C° 0 mm 3 mps 667 mmHg 12%
    21:00 +30°C° 0 mm 3 mps 667 mmHg 13%
    22:00 +29°C° 0 mm 3 mps 667 mmHg 14%
    23:00 +28°C° 0 mm 3 mps 667 mmHg 15%

    Tomorrow, 27 September, Thursday

    Time Temperature Precipitation Wind Pressure Humidity
    00:00 +28°C° 0 mm 3 mps 667 mmHg 16%
    01:00 +27°C° 0 mm 3 mps 667 mmHg 17%
    02:00 +26°C° 0 mm 3 mps 667 mmHg 18%
    03:00 +26°C° 0 mm 3 mps 667 mmHg 20%
    04:00 +25°C° 0 mm 4 mps 666 mmHg 22%
    05:00 +25°C° 0 mm 5 mps 666 mmHg 24%
    06:00 +26°C° 0 mm 5 mps 667 mmHg 25%
    07:00 +27°C° 0 mm 6 mps 668 mmHg 26%
    08:00 +28°C° 0 mm 7 mps 668 mmHg 27%
    09:00 +30°C° 0 mm 7 mps 669 mmHg 24%
    10:00 +33°C° 0 mm 7 mps 669 mmHg 21%
    11:00 +35°C° 0 mm 7 mps 669 mmHg 18%
    12:00 +36°C° 0 mm 6 mps 669 mmHg 16%
    13:00 +37°C° 0 mm 5 mps 668 mmHg 13%
    14:00 +39°C° 0 mm 5 mps 668 mmHg 11%
    15:00 +39°C° 0 mm 5 mps 667 mmHg 11%
    16:00 +37°C° 0 mm 5 mps 667 mmHg 12%
    17:00 +37°C° 0 mm 5 mps 667 mmHg 12%
    18:00 +35°C° 0 mm 5 mps 667 mmHg 15%
    19:00 +34°C° 0 mm 5 mps 667 mmHg 18%
    20:00 +32°C° 0 mm 6 mps 667 mmHg 21%
    21:00 +30°C° 0 mm 6 mps 668 mmHg 24%
    22:00 +29°C° 0 mm 6 mps 668 mmHg 28%
    23:00 +28°C° 0 mm 6 mps 668 mmHg 31%

    Day after tomorrow, 28 September, Friday

    Time Temperature Precipitation Wind Pressure Humidity
    00:00 +28°C° 0 mm 6 mps 668 mmHg 33%
    01:00 +27°C° 0 mm 6 mps 667 mmHg 34%
    02:00 +26°C° 0 mm 5 mps 667 mmHg 36%
    03:00 +26°C° 0 mm 5 mps 667 mmHg 37%
    04:00 +25°C° 0 mm 5 mps 666 mmHg 38%
    05:00 +25°C° 0 mm 5 mps 666 mmHg 39%
    06:00 +26°C° 0 mm 5 mps 667 mmHg 36%
    07:00 +27°C° 0 mm 5 mps 668 mmHg 33%
    08:00 +28°C° 0 mm 6 mps 668 mmHg 30%
    09:00 +32°C° 0 mm 6 mps 669 mmHg 24%
    10:00 +34°C° 0 mm 6 mps 669 mmHg 19%
    11:00 +38°C° 0 mm 6 mps 669 mmHg 13%
    12:00 +37°C° 0 mm 5 mps 668 mmHg 12%
    13:00 +38°C° 0 mm 4 mps 668 mmHg 11%
    14:00 +40°C° 0 mm 4 mps 667 mmHg 9%
    15:00 +38°C° 0 mm 4 mps 667 mmHg 9%
    16:00 +38°C° 0 mm 4 mps 666 mmHg 9%
    17:00 +38°C° 0 mm 4 mps 666 mmHg 9%
    18:00 +36°C° 0 mm 4 mps 667 mmHg 11%
    19:00 +34°C° 0 mm 4 mps 667 mmHg 12%
    20:00 +32°C° 0 mm 4 mps 667 mmHg 14%
    21:00 +32°C° 0 mm 4 mps 668 mmHg 18%
    22:00 +30°C° 0 mm 5 mps 668 mmHg 21%
    23:00 +29°C° 0 mm 5 mps 668 mmHg 25%

    29 September, Saturday

    Time Temperature Precipitation Wind Pressure Humidity
    00:00 +29°C° 0 mm 5 mps 668 mmHg 26%
    01:00 +28°C° 0 mm 5 mps 668 mmHg 27%
    02:00 +28°C° 0 mm 6 mps 668 mmHg 29%
    03:00 +27°C° 0 mm 5 mps 668 mmHg 30%
    04:00 +26°C° 0 mm 5 mps 668 mmHg 31%
    05:00 +26°C° 0 mm 5 mps 668 mmHg 32%
    06:00 +26°C° 0 mm 5 mps 668 mmHg 30%
    07:00 +27°C° 0 mm 6 mps 669 mmHg 29%
    08:00 +28°C° 0 mm 6 mps 670 mmHg 27%
    09:00 +30°C° 0 mm 6 mps 670 mmHg 25%
    10:00 +33°C° 0 mm 6 mps 670 mmHg 23%
    11:00 +34°C° 0 mm 6 mps 670 mmHg 21%
    12:00 +35°C° 0 mm 6 mps 670 mmHg 20%
    13:00 +36°C° 0 mm 6 mps 670 mmHg 19%
    14:00 +36°C° 0 mm 7 mps 669 mmHg 19%
    15:00 +35°C° 0.2 mm 7 mps 669 mmHg 21%
    16:00 +34°C° 0.2 mm 7 mps 669 mmHg 24%
    17:00 +33°C° 0.2 mm 8 mps 669 mmHg 26%
    18:00 +29°C° 1.4 mm 8 mps 670 mmHg 34%
    19:00 +27°C° 1.4 mm 9 mps 670 mmHg 42%
    20:00 +24°C° 1.4 mm 9 mps 671 mmHg 49%
    21:00 +23°C° 0.9 mm 9 mps 671 mmHg 54%
    22:00 +22°C° 0.9 mm 9 mps 672 mmHg 58%
    23:00 +21°C° 0.9 mm 8 mps 672 mmHg 63%

    30 September, Sunday

    Time Temperature Precipitation Wind Pressure Humidity
    00:00 +20°C° 0.1 mm 8 mps 672 mmHg 64%
    01:00 +18°C° 0.1 mm 9 mps 672 mmHg 65%
    02:00 +17°C° 0.1 mm 9 mps 671 mmHg 66%
    03:00 +17°C° 0 mm 9 mps 672 mmHg 66%
    04:00 +17°C° 0 mm 9 mps 672 mmHg 66%
    05:00 +16°C° 0 mm 9 mps 672 mmHg 66%
    06:00 +16°C° 0 mm 9 mps 673 mmHg 63%
    07:00 +16°C° 0 mm 9 mps 673 mmHg 60%
    08:00 +16°C° 0 mm 9 mps 674 mmHg 57%
    09:00 +18°C° 0 mm 9 mps 674 mmHg 53%
    10:00 +19°C° 0 mm 9 mps 674 mmHg 49%
    11:00 +22°C° 0 mm 9 mps 674 mmHg 45%
    12:00 +23°C° 0 mm 8 mps 674 mmHg 42%
    13:00 +23°C° 0 mm 8 mps 673 mmHg 40%
    14:00 +24°C° 0 mm 8 mps 672 mmHg 38%
    15:00 +24°C° 0 mm 8 mps 672 mmHg 38%
    16:00 +24°C° 0 mm 8 mps 672 mmHg 38%
    17:00 +23°C° 0 mm 7 mps 672 mmHg 38%
    18:00 +22°C° 0 mm 7 mps 672 mmHg 42%
    19:00 +21°C° 0 mm 7 mps 672 mmHg 46%
    20:00 +20°C° 0 mm 7 mps 672 mmHg 50%
    21:00 +18°C° 0 mm 7 mps 672 mmHg 53%
    22:00 +17°C° 0 mm 7 mps 672 mmHg 56%
    23:00 +16°C° 0 mm 7 mps 672 mmHg 60%

    1 October, Monday

    Time Temperature Precipitation Wind Pressure Humidity
    00:00 +16°C° 0 mm 7 mps 672 mmHg 62%
    01:00 +15°C° 0 mm 6 mps 672 mmHg 65%
    02:00 +15°C° 0 mm 6 mps 671 mmHg 68%
    03:00 +14°C° 0 mm 6 mps 671 mmHg 70%
    04:00 +14°C° 0 mm 6 mps 671 mmHg 72%
    05:00 +13°C° 0 mm 6 mps 671 mmHg 74%
    06:00 +14°C° 0 mm 6 mps 672 mmHg 71%
    07:00 +15°C° 0 mm 6 mps 672 mmHg 68%
    08:00 +15°C° 0 mm 6 mps 673 mmHg 66%
    09:00 +19°C° 0 mm 6 mps 673 mmHg 57%
    10:00 +21°C° 0 mm 6 mps 673 mmHg 48%
    11:00 +23°C° 0 mm 6 mps 673 mmHg 39%
    12:00 +26°C° 0 mm 6 mps 673 mmHg 34%
    13:00 +27°C° 0 mm 5 mps 672 mmHg 29%
    14:00 +29°C° 0 mm 5 mps 671 mmHg 23%
    15:00 +29°C° 0 mm 5 mps 671 mmHg 23%
    16:00 +28°C° 0 mm 5 mps 671 mmHg 23%
    17:00 +28°C° 0 mm 5 mps 670 mmHg 22%
    18:00 +27°C° 0 mm 4 mps 671 mmHg 25%
    19:00 +25°C° 0 mm 4 mps 671 mmHg 28%
    20:00 +24°C° 0 mm 3 mps 671 mmHg 31%
    21:00 +22°C° 0 mm 3 mps 671 mmHg 33%
    22:00 +21°C° 0 mm 3 mps 671 mmHg 35%
    23:00 +20°C° 0 mm 3 mps 671 mmHg 37%
    Show more